• In Hungary
  • List of Countries
  • For 7 days
  • Water Temperature
  • Satellite Maps
  • Weather Map
  • News
  • Weather Widgets
  • user-avatar
    Login

    Hourly Weather Kozlovka

    Today, 23 September, Sunday

    Time Temperature Precipitation Wind Pressure Humidity
    00:00 +17°C° 0 mm 2 mps 748 mmHg 69%
    01:00 +16°C° 0 mm 2 mps 748 mmHg 70%
    02:00 +16°C° 0 mm 2 mps 748 mmHg 72%
    03:00 +15°C° 0 mm 2 mps 748 mmHg 75%
    04:00 +15°C° 0 mm 2 mps 748 mmHg 76%
    05:00 +15°C° 0 mm 2 mps 747 mmHg 77%
    06:00 +14°C° 0 mm 3 mps 747 mmHg 78%
    07:00 +17°C° 0 mm 4 mps 747 mmHg 71%
    08:00 +19°C° 0 mm 5 mps 747 mmHg 63%
    09:00 +21°C° 0 mm 6 mps 747 mmHg 54%
    10:00 +22°C° 0 mm 6 mps 746 mmHg 50%
    11:00 +22°C° 0 mm 6 mps 746 mmHg 46%
    12:00 +23°C° 0 mm 7 mps 746 mmHg 42%
    13:00 +23°C° 0 mm 7 mps 745 mmHg 40%
    14:00 +23°C° 0 mm 7 mps 744 mmHg 38%
    15:00 +24°C° 0 mm 7 mps 744 mmHg 38%
    16:00 +23°C° 0 mm 6 mps 743 mmHg 40%
    17:00 +21°C° 0 mm 5 mps 743 mmHg 42%
    18:00 +20°C° 0 mm 5 mps 742 mmHg 44%
    19:00 +20°C° 0 mm 5 mps 742 mmHg 44%
    20:00 +19°C° 0 mm 5 mps 742 mmHg 44%
    21:00 +19°C° 0 mm 6 mps 742 mmHg 45%
    22:00 +17°C° 0.5 mm 6 mps 742 mmHg 55%
    23:00 +15°C° 0.5 mm 6 mps 741 mmHg 66%

    Tomorrow, 24 September, Monday

    Time Temperature Precipitation Wind Pressure Humidity
    00:00 +14°C° 0.5 mm 7 mps 741 mmHg 77%
    01:00 +13°C° 1.6 mm 6 mps 742 mmHg 79%
    02:00 +10°C° 1.6 mm 6 mps 742 mmHg 81%
    03:00 +9°C° 1.6 mm 6 mps 742 mmHg 83%
    04:00 +9°C° 0 mm 6 mps 743 mmHg 82%
    05:00 +9°C° 0 mm 5 mps 743 mmHg 82%
    06:00 +9°C° 0 mm 5 mps 744 mmHg 82%
    07:00 +10°C° 0 mm 5 mps 744 mmHg 78%
    08:00 +10°C° 0 mm 5 mps 745 mmHg 75%
    09:00 +12°C° 0 mm 4 mps 745 mmHg 71%
    10:00 +13°C° 0 mm 4 mps 745 mmHg 64%
    11:00 +15°C° 0 mm 4 mps 745 mmHg 56%
    12:00 +17°C° 0 mm 4 mps 745 mmHg 48%
    13:00 +17°C° 0 mm 3 mps 745 mmHg 46%
    14:00 +18°C° 0 mm 3 mps 745 mmHg 43%
    15:00 +18°C° 0 mm 3 mps 745 mmHg 40%
    16:00 +17°C° 0 mm 2 mps 745 mmHg 44%
    17:00 +16°C° 0 mm 2 mps 744 mmHg 47%
    18:00 +15°C° 0 mm 2 mps 744 mmHg 50%
    19:00 +14°C° 0 mm 3 mps 744 mmHg 51%
    20:00 +13°C° 0 mm 3 mps 744 mmHg 51%
    21:00 +13°C° 0 mm 4 mps 743 mmHg 52%
    22:00 +13°C° 0 mm 4 mps 743 mmHg 51%
    23:00 +12°C° 0 mm 4 mps 742 mmHg 51%

    Day after tomorrow, 25 September, Tuesday

    Time Temperature Precipitation Wind Pressure Humidity
    00:00 +12°C° 0 mm 5 mps 742 mmHg 50%
    01:00 +13°C° 0 mm 5 mps 741 mmHg 48%
    02:00 +13°C° 0 mm 6 mps 741 mmHg 46%
    03:00 +12°C° 0 mm 7 mps 740 mmHg 44%
    04:00 +12°C° 0.3 mm 7 mps 740 mmHg 49%
    05:00 +14°C° 0.3 mm 7 mps 739 mmHg 53%
    06:00 +14°C° 0.3 mm 7 mps 739 mmHg 58%
    07:00 +13°C° 1.1 mm 8 mps 738 mmHg 64%
    08:00 +13°C° 1.1 mm 8 mps 738 mmHg 70%
    09:00 +15°C° 1.1 mm 9 mps 738 mmHg 77%
    10:00 +13°C° 2.1 mm 8 mps 738 mmHg 80%
    11:00 +12°C° 2.1 mm 7 mps 739 mmHg 84%
    12:00 +11°C° 2.1 mm 6 mps 739 mmHg 87%
    13:00 +11°C° 0.5 mm 6 mps 739 mmHg 82%
    14:00 +13°C° 0.5 mm 6 mps 740 mmHg 76%
    15:00 +13°C° 0.5 mm 5 mps 740 mmHg 70%
    16:00 +13°C° 0 mm 4 mps 741 mmHg 70%
    17:00 +12°C° 0 mm 4 mps 741 mmHg 71%
    18:00 +12°C° 0 mm 3 mps 742 mmHg 71%
    19:00 +12°C° 0 mm 3 mps 742 mmHg 72%
    20:00 +12°C° 0 mm 2 mps 743 mmHg 73%
    21:00 +12°C° 0 mm 2 mps 743 mmHg 75%
    22:00 +10°C° 0 mm 3 mps 744 mmHg 76%
    23:00 +9°C° 0 mm 3 mps 744 mmHg 77%

    26 September, Wednesday

    Time Temperature Precipitation Wind Pressure Humidity
    00:00 +9°C° 0 mm 3 mps 744 mmHg 79%
    01:00 +8°C° 0 mm 3 mps 745 mmHg 81%
    02:00 +7°C° 0 mm 3 mps 745 mmHg 84%
    03:00 +7°C° 0 mm 3 mps 746 mmHg 86%
    04:00 +5°C° 0 mm 3 mps 746 mmHg 88%
    05:00 +5°C° 0 mm 3 mps 747 mmHg 89%
    06:00 +5°C° 0 mm 2 mps 747 mmHg 91%
    07:00 +5°C° 0 mm 3 mps 748 mmHg 84%
    08:00 +8°C° 0 mm 3 mps 748 mmHg 77%
    09:00 +9°C° 0 mm 3 mps 749 mmHg 70%
    10:00 +10°C° 0 mm 3 mps 749 mmHg 64%
    11:00 +11°C° 0 mm 4 mps 750 mmHg 59%
    12:00 +12°C° 0 mm 4 mps 750 mmHg 53%
    13:00 +12°C° 0 mm 4 mps 750 mmHg 52%
    14:00 +12°C° 0 mm 4 mps 750 mmHg 51%
    15:00 +13°C° 0 mm 4 mps 750 mmHg 51%
    16:00 +11°C° 0 mm 3 mps 751 mmHg 55%
    17:00 +10°C° 0 mm 3 mps 751 mmHg 59%
    18:00 +9°C° 0 mm 2 mps 751 mmHg 63%
    19:00 +9°C° 0 mm 2 mps 751 mmHg 64%
    20:00 +8°C° 0 mm 2 mps 752 mmHg 66%
    21:00 +8°C° 0 mm 2 mps 752 mmHg 67%
    22:00 +7°C° 0 mm 2 mps 752 mmHg 68%
    23:00 +7°C° 0 mm 2 mps 752 mmHg 69%

    27 September, Thursday

    Time Temperature Precipitation Wind Pressure Humidity
    00:00 +6°C° 0 mm 2 mps 752 mmHg 70%
    01:00 +6°C° 0 mm 2 mps 752 mmHg 71%
    02:00 +6°C° 0 mm 2 mps 752 mmHg 73%
    03:00 +5°C° 0 mm 2 mps 752 mmHg 74%
    04:00 +5°C° 0 mm 2 mps 752 mmHg 75%
    05:00 +5°C° 0 mm 2 mps 752 mmHg 76%
    06:00 +4°C° 0 mm 2 mps 751 mmHg 77%
    07:00 +5°C° 0 mm 3 mps 751 mmHg 70%
    08:00 +6°C° 0 mm 4 mps 751 mmHg 62%
    09:00 +8°C° 0 mm 6 mps 751 mmHg 55%
    10:00 +9°C° 0 mm 6 mps 751 mmHg 51%
    11:00 +9°C° 0 mm 7 mps 750 mmHg 47%
    12:00 +10°C° 0 mm 7 mps 750 mmHg 43%
    13:00 +10°C° 0 mm 8 mps 749 mmHg 42%
    14:00 +11°C° 0 mm 8 mps 749 mmHg 41%
    15:00 +11°C° 0 mm 8 mps 748 mmHg 39%
    16:00 +11°C° 0 mm 7 mps 748 mmHg 41%
    17:00 +10°C° 0 mm 6 mps 747 mmHg 42%
    18:00 +9°C° 0 mm 5 mps 747 mmHg 44%
    19:00 +9°C° 0 mm 5 mps 747 mmHg 44%
    20:00 +9°C° 0 mm 6 mps 747 mmHg 45%
    21:00 +9°C° 0 mm 6 mps 747 mmHg 45%
    22:00 +9°C° 0 mm 6 mps 747 mmHg 46%
    23:00 +9°C° 0 mm 6 mps 747 mmHg 47%

    28 September, Friday

    Time Temperature Precipitation Wind Pressure Humidity
    00:00 +9°C° 0 mm 6 mps 746 mmHg 47%
    01:00 +9°C° 0 mm 6 mps 746 mmHg 51%
    02:00 +9°C° 0 mm 6 mps 746 mmHg 56%
    03:00 +9°C° 0 mm 5 mps 747 mmHg 60%
    04:00 +9°C° 0 mm 5 mps 747 mmHg 64%
    05:00 +8°C° 0 mm 4 mps 747 mmHg 67%
    06:00 +7°C° 0 mm 4 mps 747 mmHg 71%
    07:00 +8°C° 0 mm 4 mps 747 mmHg 68%
    08:00 +11°C° 0 mm 4 mps 747 mmHg 66%
    09:00 +12°C° 0 mm 5 mps 747 mmHg 64%
    10:00 +13°C° 0 mm 5 mps 747 mmHg 61%
    11:00 +15°C° 0 mm 6 mps 747 mmHg 58%
    12:00 +16°C° 0 mm 6 mps 746 mmHg 55%
    13:00 +17°C° 0 mm 7 mps 746 mmHg 54%
    14:00 +17°C° 0 mm 7 mps 745 mmHg 53%
    15:00 +18°C° 0 mm 7 mps 745 mmHg 52%
    16:00 +17°C° 0 mm 7 mps 745 mmHg 55%
    17:00 +16°C° 0 mm 6 mps 745 mmHg 58%
    18:00 +15°C° 0 mm 5 mps 744 mmHg 60%
    19:00 +15°C° 0 mm 5 mps 744 mmHg 61%
    20:00 +14°C° 0 mm 5 mps 745 mmHg 62%
    21:00 +14°C° 0 mm 5 mps 745 mmHg 62%
    22:00 +14°C° 0 mm 5 mps 745 mmHg 63%
    23:00 +14°C° 0 mm 5 mps 745 mmHg 63%
    Show more